BEIDOU-3 M5 (C21)

Last updated on Jan. 17, 2020, 4:32 a.m. UTC

1 43207U 18018A   20015.33252104  .00000040  00000-0  00000+0 0  9995
2 43207  55.1269 141.5212 0005135 342.1252  17.8298  1.86231657 13070
UTC
Height (km)
Latitude
Longitude
Inclination
Orbital Period
UTC large
Height (km)
Speed (km/s)
/
Latitude / Longitude
Inclination (degrees)
Orbital Period (minutes)
Azimuth
Elevation
Range (km)
Doppler Factor
iOS Compass Heading
iOS Angle

Next 30 passes for location: Hong Kong

Rise time Rise Azimuth (degrees) Set time Set Azimuth (degrees) Duration Max altitude (degrees)

No matching passes for this satellites